Preston, MN

1:21 PM CDT on June 26, 2017 (GMT -0500)
Preston

Weather History for KFKA - October, 2011

Change the Weather History Date:

Wednesday, October 26, 2011

  Actual Average (KRST) Record (KRST)
Temperature  
Mean Temperature 47 °F -  
Max Temperature 52 °F 55 °F 81 °F (1955)
Min Temperature 42 °F 34 °F 4 °F (1887)
Degree Days  
Heating Degree Days 18    
Moisture  
Dew Point 35 °F    
Average Humidity 67    
Maximum Humidity 85    
Minimum Humidity 44    
Precipitation  
Precipitation 0.00 in - - ()
Sea Level Pressure  
Sea Level Pressure 30.02 in    
Wind  
Wind Speed 9 mph (North)    
Max Wind Speed 14 mph    
Max Gust Speed 20 mph    
Visibility 10 miles    
Events      
Averages and records for this station are not official NWS values.
T = Trace of Precipitation, MM = Missing Value Source: NWS Daily Summary

Daily Weather History Graph

Daily Weather History Graph

Search for Another Location

Airport or City:

Trip Planner

Search our weather history database for the weather conditions in past years. The results will help you decide how hot, cold, wet, or windy it might be!

Date:

Astronomy

Oct. 26, 2011 Rise Set
Actual Time 7:36 AM CDT 6:08 PM CDT
Civil Twilight 7:06 AM CDT 6:37 PM CDT
Nautical Twilight 6:33 AM CDT 7:11 PM CDT
Astronomical Twilight 6:00 AM CDT 7:44 PM CDT
Moon 7:26 AM CDT 5:48 PM CDT
Length of Visible Light 11h 30m
Length of Day
10h 31m
Waning Crescent, 0% of the Moon is Illuminated
Oct 26
Waning Crescent
Oct 26
New
Nov 2
First Quarter
Nov 10
Full
Nov 18
Last Quarter

Hourly Weather History & Observations

Time (CDT) Temp. Windchill Dew Point Humidity Pressure Visibility Wind Dir Wind Speed Gust Speed Precip Events Conditions
12:13 AM 44.6 °F 38.8 °F 40.3 °F 85% 29.94 in 10.0 mi NE 11.5 mph - N/A   Overcast
12:32 AM 44.6 °F 38.4 °F 39.4 °F 82% 29.94 in 10.0 mi NNE 12.7 mph 19.6 mph N/A   Overcast
12:53 AM 44.8 °F 38.3 °F 39.2 °F 81% 29.96 in 10.0 mi NNE 13.8 mph 17.3 mph N/A   Overcast
1:12 AM 44.6 °F 38.8 °F 38.7 °F 80% 29.95 in 10.0 mi NNE 11.5 mph 19.6 mph N/A   Overcast
1:32 AM 44.6 °F 40.2 °F 38.5 °F 79% 29.97 in 10.0 mi NNE 8.1 mph - N/A   Overcast
1:52 AM 44.6 °F 41.4 °F 38.5 °F 79% 29.99 in 10.0 mi North 5.8 mph - N/A   Overcast
2:12 AM 44.6 °F 40.7 °F 38.5 °F 79% 29.98 in 10.0 mi North 6.9 mph - N/A   Overcast
2:32 AM 44.6 °F 39.7 °F 38.3 °F 79% 29.98 in 10.0 mi NNE 9.2 mph - N/A   Overcast
2:53 AM 44.2 °F 39.2 °F 38.3 °F 80% 29.98 in 10.0 mi NNE 9.2 mph - N/A   Overcast
3:12 AM 44.2 °F 40.3 °F 38.5 °F 80% 29.99 in 10.0 mi North 6.9 mph - N/A   Overcast
3:32 AM 44.1 °F 39.5 °F 38.5 °F 81% 30.00 in 10.0 mi North 8.1 mph - N/A   Overcast
3:53 AM 43.7 °F 39.1 °F 38.5 °F 82% 30.00 in 10.0 mi North 8.1 mph - N/A   Overcast
4:12 AM 43.7 °F 39.1 °F 38.5 °F 82% 29.99 in 10.0 mi North 8.1 mph - N/A   Overcast
4:32 AM 43.7 °F 39.7 °F 38.5 °F 82% 29.99 in 10.0 mi North 6.9 mph - N/A   Overcast
4:52 AM 43.7 °F 38.6 °F 38.8 °F 83% 30.00 in 10.0 mi North 9.2 mph - N/A   Overcast
5:12 AM 43.3 °F 38.6 °F 38.8 °F 84% 30.01 in 10.0 mi North 8.1 mph - N/A   Overcast
5:32 AM 43.2 °F 38.4 °F 38.7 °F 84% 30.02 in 10.0 mi North 8.1 mph - N/A   Overcast
5:52 AM 42.8 °F 38.0 °F 38.7 °F 85% 30.01 in 10.0 mi North 8.1 mph - N/A   Overcast
6:12 AM 42.8 °F 36.2 °F 38.5 °F 85% 30.01 in 10.0 mi North 12.7 mph 17.3 mph N/A   Overcast
6:32 AM 42.4 °F 36.1 °F 38.3 °F 85% 30.02 in 10.0 mi North 11.5 mph 17.3 mph N/A   Overcast
7:12 AM 42.3 °F 37.3 °F 37.9 °F 85% 30.03 in 10.0 mi North 8.1 mph - N/A   Overcast
7:33 AM 42.4 °F 38.1 °F 37.9 °F 84% 30.03 in 10.0 mi North 6.9 mph - N/A   Overcast
7:53 AM 42.4 °F 38.1 °F 37.9 °F 84% 30.03 in 10.0 mi North 6.9 mph - N/A   Overcast
8:12 AM 42.8 °F 38.0 °F 37.9 °F 83% 30.04 in 10.0 mi NNE 8.1 mph - N/A   Overcast
8:32 AM 42.4 °F 37.0 °F 37.4 °F 82% 30.04 in 10.0 mi NNE 9.2 mph - N/A   Overcast
8:53 AM 42.8 °F 38.0 °F 37.2 °F 81% 30.04 in 10.0 mi NNE 8.1 mph - N/A   Overcast
9:12 AM 43.3 °F 38.6 °F 37.2 °F 79% 30.04 in 10.0 mi NNE 8.1 mph - N/A   Overcast
9:33 AM 43.7 °F 39.7 °F 36.7 °F 76% 30.05 in 10.0 mi NNE 6.9 mph - N/A   Overcast
9:53 AM 43.9 °F 39.9 °F 36.7 °F 76% 30.06 in 10.0 mi NNE 6.9 mph - N/A   Overcast
10:12 AM 44.6 °F 40.2 °F 36.7 °F 74% 30.06 in 10.0 mi NNE 8.1 mph - N/A   Overcast
10:53 AM 45.9 °F 42.9 °F 36.7 °F 70% 30.07 in 10.0 mi North 5.8 mph - N/A   Overcast
11:12 AM 46.2 °F 43.3 °F 36.3 °F 68% 30.07 in 10.0 mi NNE 5.8 mph - N/A   Overcast
11:33 AM 46.6 °F - 35.8 °F 66% 30.06 in 10.0 mi NNE 5.8 mph - N/A   Mostly Cloudy
12:12 PM 48.9 °F - 34.5 °F 58% 30.06 in 10.0 mi NE 6.9 mph - N/A   Scattered Clouds
12:33 PM 49.3 °F - 34.0 °F 56% 30.06 in 10.0 mi ENE 3.5 mph - N/A   Scattered Clouds
12:52 PM 49.1 °F - 33.1 °F 54% 30.06 in 10.0 mi NNE 4.6 mph - N/A   Clear
1:12 PM 52.0 °F - 32.9 °F 48% 30.05 in 10.0 mi North 6.9 mph - N/A   Clear
1:32 PM 52.9 °F - 32.4 °F 46% 30.05 in 10.0 mi NNE 12.7 mph 17.3 mph N/A   Clear
2:12 PM 52.7 °F - 31.6 °F 45% 30.04 in 10.0 mi North 13.8 mph - N/A   Clear
2:33 PM 52.2 °F - 31.6 °F 46% 30.03 in 10.0 mi North 8.1 mph 11.5 mph N/A   Clear
2:52 PM 52.2 °F - 32.0 °F 46% 30.03 in 10.0 mi North 8.1 mph 17.3 mph N/A   Clear
3:12 PM 51.6 °F - 32.0 °F 47% 30.03 in 10.0 mi North 10.4 mph 16.1 mph N/A   Clear
3:32 PM 51.8 °F - 31.1 °F 45% 30.03 in 10.0 mi North 12.7 mph - N/A   Clear
3:52 PM 52.7 °F - 31.5 °F 44% 30.03 in 10.0 mi NNE 10.4 mph - N/A   Clear
4:12 PM 52.7 °F - 31.1 °F 44% 30.03 in 10.0 mi North 9.2 mph - N/A   Scattered Clouds
4:32 PM 51.8 °F - 30.9 °F 45% 30.01 in 10.0 mi North 10.4 mph - N/A   Clear
5:12 PM 50.7 °F - 30.6 °F 46% 30.02 in 10.0 mi NNE 8.1 mph - N/A   Clear
5:33 PM 50.0 °F - 29.8 °F 46% 30.01 in 10.0 mi North 9.2 mph - N/A   Clear
5:52 PM 48.9 °F - 30.2 °F 48% 30.01 in 10.0 mi North 5.8 mph - N/A   Clear
6:12 PM 48.2 °F - 29.7 °F 49% 30.01 in 10.0 mi North 4.6 mph - N/A   Clear
6:32 PM 46.4 °F 45.2 °F 29.3 °F 51% 30.03 in 10.0 mi North 3.5 mph - N/A   Clear
6:52 PM 46.2 °F 45.0 °F 29.5 °F 52% 30.04 in 10.0 mi NNW 3.5 mph - N/A   Clear
7:12 PM 46.0 °F 44.8 °F 29.7 °F 53% 30.03 in 10.0 mi North 3.5 mph - N/A   Clear
7:32 PM 45.7 °F - 30.0 °F 54% 30.04 in 10.0 mi Calm Calm - N/A   Clear
7:52 PM 45.7 °F 44.4 °F 30.2 °F 55% 30.04 in 10.0 mi NW 3.5 mph - N/A   Clear
8:12 PM 44.8 °F 42.4 °F 31.3 °F 59% 30.04 in 10.0 mi WNW 4.6 mph - N/A   Clear
8:33 PM 44.1 °F 42.5 °F 31.8 °F 62% 30.04 in 10.0 mi NNW 3.5 mph - N/A   Clear
8:52 PM 43.9 °F 41.3 °F 32.0 °F 63% 30.04 in 10.0 mi NNW 4.6 mph - N/A   Clear
9:13 PM 43.7 °F 41.1 °F 32.5 °F 65% 30.04 in 10.0 mi WNW 4.6 mph - N/A   Clear
9:32 PM 42.4 °F 39.6 °F 33.3 °F 70% 30.04 in 10.0 mi NW 4.6 mph - N/A   Clear
9:52 PM 43.0 °F 38.8 °F 33.3 °F 69% 30.04 in 10.0 mi NW 6.9 mph - N/A   Clear
10:12 PM 41.9 °F 39.0 °F 33.8 °F 73% 30.05 in 10.0 mi NW 4.6 mph - N/A   Clear
10:32 PM 41.5 °F 37.8 °F 34.3 °F 76% 30.04 in 10.0 mi NW 5.8 mph - N/A   Clear
10:52 PM 41.9 °F 38.2 °F 35.1 °F 77% 30.05 in 10.0 mi NW 5.8 mph - N/A   Mostly Cloudy
11:13 PM 42.6 °F 39.9 °F 35.6 °F 76% 30.05 in 10.0 mi NNW 4.6 mph - N/A   Overcast
11:32 PM 43.0 °F 40.3 °F 36.3 °F 77% 30.04 in 10.0 mi NNW 4.6 mph - N/A   Overcast